Powrót do katalogu

IRIDIUM 118

AktywnyŁącznośćPO
NORAD 42807·PAYLOAD·🇺🇸 United States

Wystrzelony Jun 25, 2017 z Vandenberg Space Force Base

Loading…

Następne Przeloty (najbliższe 24 godziny)

TLE

ŚwieżeSource: CelesTrak SupGP

Epoka: Sep 15, 2026, 01:17 UTC

1 42807C 17039E   26258.05381944  .00003213  00000+0  11487-2 0  2587
2 42807  86.3976 316.0916 0002255  97.4033 355.3735 14.34214924    14

Śledź IRIDIUM 118 w czasie rzeczywistym z AllMySat

Download on the App Store